Location: Unspecified
(50.0000°N, 15.0000°E)
Time: 04:25:29
(UTC+02:00)

ISS - Pass Details

Date: 24 September 2021
Orbit: 417 x 423 km, 51.6° (Epoch: 27 October)

Event Time Altitude Azimuth Distance (km) Brightness Sun altitude
Rises 19:18:23 0° 252° (WSW) 2,358 1.5 -4.8°
Reaches altitude 10° 19:20:28 10° 252° (WSW) 1,497 0.4 -5.2°
Maximum altitude 19:23:50 88° 159° (SSE) 424 -3.7 -5.7°
Drops below altitude 10° 19:27:13 10° 74° (ENE) 1,504 -1.5 -6.2°
Enters shadow 19:27:50 - 74° (ENE) 1,754 -1.2 -6.3°
